Montrose, CO

2:09 AM MDT on August 19, 2017 (GMT -0600)
Montrose Regional

Weather History for KMTJ - September, 2012

Change the Weather History Date:

Friday, September 28, 2012

  Actual Average Record
Temperature  
Mean Temperature 57 °F 57 °F  
Max Temperature 73 °F 73 °F 86 °F (2001)
Min Temperature 41 °F 42 °F 28 °F (1999)
Degree Days  
Heating Degree Days 8 8  
Month to date heating degree days 66 104  
Since 1 July heating degree days 66 109  
Cooling Degree Days 0 0  
Month to date cooling degree days 50 37  
Year to date cooling degree days 906 642  
Growing Degree Days 6 (Base 50)    
Moisture  
Dew Point 40 °F    
Average Humidity 60    
Maximum Humidity 93    
Minimum Humidity 27    
Precipitation  
Precipitation 0.00 in 0.05 in 0.66 in (2014)
Month to date precipitation 0.82 1.23  
Year to date precipitation 4.87 8.56  
Sea Level Pressure  
Sea Level Pressure 30.09 in    
Wind  
Wind Speed 6 mph (SE)    
Max Wind Speed 10 mph    
Max Gust Speed 13 mph    
Visibility 10 miles    
Events      
T = Trace of Precipitation, MM = Missing Value Source: NWS Daily Summary

Daily Weather History Graph

Daily Weather History Graph

Search for Another Location

Airport or City:

Trip Planner

Search our weather history database for the weather conditions in past years. The results will help you decide how hot, cold, wet, or windy it might be!

Date:

Astronomy

Sep. 28, 2012 Rise Set
Actual Time 7:05 AM MDT 6:58 PM MDT
Civil Twilight 6:38 AM MDT 7:24 PM MDT
Nautical Twilight 6:07 AM MDT 7:55 PM MDT
Astronomical Twilight 5:36 AM MDT 8:26 PM MDT
Moon 6:01 PM MDT (9/28) 5:39 AM MDT (9/28)
Length of Visible Light 12h 45m
Length of Day
11h 53m
Waxing Gibbous, 98% of the Moon is Illuminated
Sep 28
Waxing Gibbous
Sep 29
Full
Oct 8
Last Quarter
Oct 15
New
Oct 21
First Quarter

Hourly Weather History & Observations

Time (MDT) Temp. Windchill Dew Point Humidity Pressure Visibility Wind Dir Wind Speed Gust Speed Precip Events Conditions
12:53 AM 46.9 °F - 43.0 °F 86% 30.12 in 10.0 mi SSE 5.8 mph - N/A   Clear
1:53 AM 46.0 °F 41.9 °F 42.1 °F 86% 30.12 in 10.0 mi South 8.1 mph - N/A   Clear
2:53 AM 45.0 °F 40.6 °F 42.1 °F 90% 30.12 in 10.0 mi SE 8.1 mph - N/A   Clear
3:53 AM 44.1 °F 40.1 °F 41.0 °F 89% 30.12 in 10.0 mi SE 6.9 mph - N/A   Clear
4:53 AM 43.0 °F 38.8 °F 39.9 °F 89% 30.13 in 10.0 mi SSE 6.9 mph - N/A   Clear
5:53 AM 43.0 °F 39.5 °F 39.9 °F 89% 30.13 in 10.0 mi SE 5.8 mph - N/A   Clear
6:53 AM 41.0 °F 38.0 °F 39.0 °F 93% 30.15 in 10.0 mi SE 4.6 mph - N/A   Clear
7:53 AM 43.0 °F 40.3 °F 39.9 °F 89% 30.18 in 10.0 mi SSE 4.6 mph - N/A   Clear
8:53 AM 48.9 °F - 41.0 °F 74% 30.17 in 10.0 mi Calm Calm - N/A   Clear
9:53 AM 53.1 °F - 43.0 °F 69% 30.17 in 10.0 mi South 3.5 mph - N/A   Clear
10:53 AM 57.9 °F - 42.1 °F 56% 30.15 in 10.0 mi Calm Calm - N/A   Clear
11:53 AM 63.0 °F - 44.1 °F 50% 30.11 in 10.0 mi Calm Calm - N/A   Clear
1:53 PM 68.0 °F - 44.1 °F 42% 30.05 in 10.0 mi NNW 8.1 mph - N/A   Clear
2:53 PM 70.0 °F - 39.0 °F 32% 30.02 in 10.0 mi North 6.9 mph - N/A   Clear
3:53 PM 71.1 °F - 36.0 °F 28% 30.00 in 10.0 mi NNE 4.6 mph - N/A   Clear
4:53 PM 72.0 °F - 36.0 °F 27% 29.99 in 10.0 mi NNW 6.9 mph - N/A   Clear
5:53 PM 71.1 °F - 37.0 °F 29% 29.99 in 10.0 mi NNW 3.5 mph - N/A   Clear
6:53 PM 68.0 °F - 33.1 °F 27% 30.00 in 10.0 mi Calm Calm - N/A   Clear
7:53 PM 59.0 °F - 44.1 °F 58% 30.04 in 10.0 mi SSE 4.6 mph - N/A   Clear
8:53 PM 57.0 °F - 42.1 °F 57% 30.05 in 10.0 mi SSE 9.2 mph - N/A   Clear
9:53 PM 55.0 °F - 41.0 °F 59% 30.05 in 10.0 mi SE 10.4 mph - N/A   Clear
10:53 PM 53.1 °F - 39.9 °F 61% 30.05 in 10.0 mi SE 9.2 mph - N/A   Clear
11:53 PM 52.0 °F - 39.9 °F 63% 30.05 in 10.0 mi SE 9.2 mph - N/A   Clear